[[{"header":{"parameterUnit":"m.s-1","parameterCategory":1,"la1":30.2991,"la2":30.254,"lo1":-89.0895,"lo2":-89.0444,"dy":0.0017,"dx":0.0017,"nx":28,"ny":28,"refTime":"2023-11-04T21:00:00:Z","depth":0,"parameterNumber":2,"parameterNumberName":"U-component_of_WINDS"},"data":[0,0,0,0,0,0,0,0,0,0,0,0,0,0,0,0,0,0,0,0,0,0,0,0,0,0,0,0,0,0,0,0,0,0,0,0,0,0,0,0,0,0,0,0,0,0,0,0,0,0,0,0,0,0,0,0,0,0,0.1886,0.1886,0,0.1933,0.1933,0.1934,0.1966,0.1967,0.1967,0.1967,0.2016,0.2017,0.2018,0,0,0,0,0,0,0,0,0,0,0,0,0,0.1825,0.1826,0.1886,0.1886,0.1887,0.1933,0.1933,0.1934,0.1966,0.1967,0.1967,0.1967,0.2016,0.2017,0.2018,0,0,0,0,0,0,0,0,0,0,0,0,0,0.186,0.1827,0.1886,0.1909,0.1911,0.1932,0.1933,0.1934,0.1966,0.1967,0.1967,0.1967,0.2015,0.2017,0.2018,0.2021,0,0,0.2023,0.2024,0,0,0,0,0,0,0,0,0.1858,0.1862,0.1905,0.1907,0.191,0.1944,0.193,0.1963,0.1966,0.1945,0.1967,0.1967,0.1992,0.1995,0.2003,0.2023,0.2025,0.2024,0.2024,0.2025,0.2026,0,0,0,0,0,0,0,0.1855,0.186,0.1904,0.1905,0.1908,0.1917,0.1922,0.1936,0.1966,0.1947,0.195,0.1955,0.1993,0.2002,0.2005,0.2026,0.2023,0.2025,0.2026,0.2027,0.205,0.205,0,0,0,0,0,0,0.1849,0.1858,0.1903,0.1906,0.1884,0.1918,0.1924,0.1933,0.1966,0.1971,0.1954,0.1956,0.1999,0.2003,0.2007,0.2012,0.2025,0.2027,0.2028,0.2051,0.205,0.205,0,0,0,0,0,0,0.1848,0.1853,0.1901,0.1883,0.1889,0.1918,0.1928,0.1933,0.1942,0.1971,0.1977,0.1957,0.1999,0.2004,0.2017,0.2014,0.2027,0.2029,0.2051,0.2051,0.205,0.2022,0,0,0,0,0,0,0.1846,0.1852,0.1853,0.1882,0.189,0.191,0.1928,0.1934,0.1944,0.1947,0.1976,0.1981,0.2,0.2015,0.2019,0.2016,0.203,0.2052,0.2051,0.205,0.2023,0.2021,0.2018,0,0,0,0,0,0.1844,0.1844,0.1853,0.1858,0.1892,0.191,0.1915,0.1936,0.1944,0.1945,0.1964,0.198,0.2014,0.2016,0.2021,0.2019,0.2052,0.2051,0.205,0.2024,0.2021,0.2018,0,0,0,0,0,0,0.1814,0.1848,0.1859,0.1868,0.1886,0.1915,0.1918,0.1932,0.1948,0.195,0.1977,0.1983,0.1993,0.2007,0.2009,0.2023,0.2035,0.2035,0.2013,0.201,0.2008,0.2004,0.2031,0,0,0,0,0,0.1808,0.182,0.1849,0.1854,0.1863,0.1889,0.1897,0.1913,0.1932,0.194,0.196,0.1979,0.1993,0.2003,0.2018,0.2026,0.2032,0.2027,0.2024,0.2022,0.2022,0.2027,0.2025,0.2048,0.2048,0.2048,0,0,0.1797,0.1817,0.1823,0.1849,0.1864,0.1876,0.1895,0.1906,0.1915,0.1942,0.1955,0.197,0.1993,0.2003,0.2008,0.2015,0.2017,0.2021,0.2019,0.202,0.2026,0.2024,0.2022,0.2047,0.2047,0.2047,0,0,0.1782,0.1798,0.1805,0.182,0.1843,0.186,0.1862,0.1889,0.19,0.1914,0.1934,0.1945,0.197,0.1986,0.1997,0.1987,0.2002,0.1992,0.1978,0.1983,0.1981,0.198,0.1976,0.1975,0.1992,0.1992,0.1991,0,0.1765,0.1783,0.1806,0.1816,0.1827,0.1852,0.1859,0.1872,0.1899,0.1906,0.1914,0.1945,0.1962,0.1976,0.1974,0.1982,0.1985,0.1989,0.1979,0.1978,0.1977,0.1974,0.1973,0.199,0.199,0.199,0.1991,0,0.1761,0.1773,0.1776,0.1801,0.1812,0.1821,0.1845,0.1854,0.1868,0.1885,0.1898,0.1919,0.1939,0.1944,0.1958,0.196,0.1963,0.1974,0.1987,0.1973,0.1971,0.197,0.1988,0.1989,0.1989,0.1989,0,0,0.1729,0.1767,0.1767,0.1779,0.1806,0.1816,0.1826,0.1845,0.1852,0.187,0.1879,0.1899,0.191,0.1922,0.1938,0.1942,0.1934,0.1953,0.1954,0.1949,0.1937,0.1928,0.1926,0.1944,0.1944,0.1943,0.1935,0,0.1718,0.1736,0.1757,0.1768,0.178,0.1803,0.1812,0.183,0.1845,0.1858,0.1875,0.1889,0.1902,0.191,0.1915,0.1934,0.1932,0.1935,0.1952,0.1952,0.1945,0.1925,0.1916,0.1906,0.1934,0.1934,0.1934,0,0.1708,0.1724,0.1736,0.1763,0.1769,0.1776,0.1795,0.1806,0.1827,0.1838,0.1852,0.1869,0.1881,0.1892,0.1908,0.1909,0.1918,0.1928,0.1928,0.1931,0.1942,0.1927,0.1904,0.1902,0.1933,0.1933,0.1933,0,0.1683,0.1708,0.1718,0.1728,0.1759,0.1764,0.1777,0.1798,0.1808,0.1825,0.1832,0.185,0.186,0.1874,0.1895,0.1901,0.1909,0.1922,0.1919,0.1918,0.1919,0.1919,0.1897,0.1925,0.1925,0.1925,0.1925,0,0.1668,0.1675,0.1708,0.1714,0.1722,0.1746,0.1754,0.1769,0.1788,0.1797,0.1819,0.1828,0.1856,0.1868,0.1885,0.1896,0.19,0.191,0.1914,0.1908,0.1906,0.1913,0.1915,0.1924,0.1925,0.1925,0.1925,0,0.1641,0.1664,0.1677,0.1705,0.1713,0.1717,0.1742,0.1749,0.1766,0.1778,0.1782,0.1809,0.1825,0.1848,0.187,0.1882,0.1889,0.1897,0.1882,0.1885,0.188,0.188,0.1862,0.1861,0.1889,0.1889,0.1889,0,0.1631,0.1636,0.1665,0.1673,0.1686,0.1699,0.1709,0.1734,0.1744,0.1768,0.1772,0.1789,0.1804,0.1828,0.1849,0.1866,0.1874,0.1867,0.1877,0.187,0.1874,0.1873,0.1874,0.1864,0.1864,0.1863,0.1863,0,0.1609,0.162,0.1634,0.1652,0.1664,0.168,0.1696,0.1702,0.173,0.174,0.1756,0.1767,0.179,0.1807,0.1827,0.1841,0.1856,0.186,0.186,0.1853,0.1844,0.1849,0.1875,0.186,0.186,0.1861,0.1861,0.1861,0.159,0.1596,0.1617,0.1633,0.1647,0.1662,0.167,0.1688,0.1702,0.1723,0.1736,0.1751,0.1772,0.1801,0.1814,0.1826,0.1833,0.1833,0.1833,0.1833,0.183,0.1843,0.183,0.183,0.183,0.183,0.183,0,0.1569,0.1584,0.1598,0.162,0.1632,0.1646,0.1665,0.1674,0.1687,0.1705,0.1719,0.1738,0.1754,0.1777,0.1795,0.18,0.1808,0.1804,0.1804,0.1806,0.1823,0.1821,0.1797,0.1797,0.1797,0.1797,0.1797,0.1797,0.156,0.1571,0.1584,0.1602,0.1618,0.1632,0.1642,0.1656,0.167,0.169,0.1703,0.1718,0.1738,0.1758,0.1773,0.1779,0.1785,0.1779,0.1787,0.1802,0.1805,0.1808,0.1806,0.178,0.178,0.1769,0.1769,0.1769]},{"header":{"parameterUnit":"m.s-1","parameterCategory":1,"la1":30.2991,"la2":30.254,"lo1":-89.0895,"lo2":-89.0444,"dy":0.0017,"dx":0.0017,"nx":28,"ny":28,"refTime":"2023-11-04T21:00:00:Z","depth":0,"parameterNumber":3,"parameterNumberName":"V-component_of_WINDS"},"data":[0,0,0,0,0,0,0,0,0,0,0,0,0,0,0,0,0,0,0,0,0,0,0,0,0,0,0,0,0,0,0,0,0,0,0,0,0,0,0,0,0,0,0,0,0,0,0,0,0,0,0,0,0,0,0,0,0,0,3.2102,3.2102,0,3.2083,3.2083,3.2083,3.2116,3.2117,3.2118,3.2119,3.2091,3.2089,3.2088,0,0,0,0,0,0,0,0,0,0,0,0,0,3.2161,3.216,3.2102,3.2102,3.2102,3.2083,3.2083,3.2083,3.2115,3.2117,3.2118,3.212,3.2092,3.209,3.2087,0,0,0,0,0,0,0,0,0,0,0,0,0,3.2138,3.2159,3.2102,3.2116,3.2117,3.2083,3.2083,3.2082,3.2115,3.2117,3.2119,3.212,3.2092,3.209,3.2087,3.2036,0,0,3.2079,3.2078,0,0,0,0,0,0,0,0,3.2139,3.2136,3.2115,3.2115,3.2116,3.2104,3.2093,3.2067,3.2115,3.2116,3.2119,3.2121,3.2093,3.2091,3.2083,3.2035,3.2034,3.2079,3.2077,3.2076,3.2075,0,0,0,0,0,0,0,3.2141,3.2137,3.2095,3.2114,3.2115,3.2121,3.212,3.2088,3.2095,3.2116,3.2118,3.2116,3.2094,3.2086,3.2083,3.2033,3.2079,3.2076,3.2075,3.2073,3.1942,3.194,0,0,0,0,0,0,3.2142,3.2138,3.2095,3.2094,3.2133,3.2119,3.2117,3.2106,3.2095,3.2096,3.2114,3.2117,3.2089,3.2086,3.2082,3.2021,3.2076,3.2073,3.2072,3.1944,3.1941,3.1939,0,0,0,0,0,0,3.2143,3.2138,3.2096,3.2117,3.2112,3.2116,3.2103,3.2105,3.2096,3.2095,3.2095,3.2105,3.2091,3.2086,3.2048,3.2021,3.2072,3.207,3.1946,3.1943,3.194,3.19,0,0,0,0,0,0,3.2144,3.2138,3.212,3.2116,3.2111,3.2064,3.2101,3.2103,3.2092,3.2096,3.2086,3.2085,3.2092,3.2052,3.2045,3.2018,3.2067,3.1948,3.1944,3.1941,3.1904,3.1896,3.1889,0,0,0,0,0,3.2146,3.2107,3.2119,3.2114,3.2089,3.2063,3.2059,3.2069,3.209,3.2071,3.207,3.2086,3.2025,3.2047,3.204,3.2012,3.195,3.1946,3.1941,3.1907,3.1897,3.189,0,0,0,0,0,0,3.2105,3.2107,3.212,3.2079,3.2071,3.2068,3.2045,3.2059,3.2043,3.2046,3.2057,3.2055,3.2014,3.2009,3.2034,3.1962,3.1991,3.1985,3.1967,3.1958,3.1951,3.1952,3.2065,0,0,0,0,0,3.2092,3.2073,3.2075,3.2038,3.2034,3.204,3.2029,3.2038,3.2029,3.2024,3.2021,3.2009,3.1987,3.1972,3.1952,3.1903,3.1901,3.188,3.1873,3.1868,3.1862,3.1835,3.1826,3.1925,3.1925,3.1926,0,0,3.2063,3.2062,3.2049,3.203,3.2025,3.2003,3.2037,3.2012,3.1995,3.202,3.1985,3.1981,3.1969,3.1925,3.1906,3.192,3.1834,3.1862,3.1858,3.1855,3.183,3.1821,3.1812,3.1923,3.1923,3.1924,0,0,3.1999,3.1997,3.1967,3.1962,3.1954,3.1959,3.1952,3.1947,3.1947,3.1913,3.1931,3.191,3.1872,3.1863,3.1853,3.1787,3.18,3.178,3.1742,3.1716,3.1709,3.1702,3.1677,3.1669,3.1774,3.1774,3.1774,0,3.1964,3.1934,3.1949,3.1924,3.1914,3.1939,3.1907,3.19,3.1885,3.1877,3.1894,3.1849,3.1842,3.1796,3.1781,3.1772,3.1762,3.178,3.1709,3.1702,3.1696,3.1673,3.1664,3.1772,3.1772,3.1772,3.1773,0,3.189,3.1869,3.1845,3.1834,3.1822,3.1793,3.1802,3.1787,3.1797,3.18,3.1763,3.1757,3.1736,3.1726,3.1734,3.1681,3.169,3.1708,3.1737,3.1684,3.1662,3.1653,3.1768,3.1769,3.177,3.1771,0,0,3.1799,3.1797,3.1788,3.1783,3.1777,3.176,3.1732,3.1715,3.1702,3.1691,3.1666,3.1635,3.1651,3.164,3.1648,3.1625,3.1573,3.1645,3.1645,3.1631,3.1513,3.1499,3.1489,3.1582,3.1581,3.1579,3.1514,0,3.1735,3.169,3.1703,3.1657,3.1637,3.166,3.1636,3.1628,3.1629,3.1611,3.1611,3.1589,3.1613,3.1606,3.1585,3.1584,3.1549,3.1589,3.1557,3.1556,3.1559,3.1478,3.1463,3.1402,3.1506,3.1504,3.1503,0,3.1655,3.1644,3.1596,3.1595,3.1587,3.1565,3.155,3.1533,3.1524,3.1526,3.1515,3.1527,3.1497,3.1528,3.1486,3.1512,3.15,3.1498,3.1496,3.1492,3.1526,3.1471,3.1383,3.1373,3.149,3.1491,3.1492,0,3.1592,3.1565,3.1534,3.1529,3.1526,3.151,3.1507,3.1501,3.149,3.1476,3.1468,3.145,3.144,3.1424,3.143,3.1452,3.1387,3.1418,3.1386,3.1386,3.1371,3.1371,3.1278,3.1364,3.1364,3.1365,3.1365,0,3.152,3.1489,3.1506,3.1486,3.1452,3.1467,3.1432,3.1432,3.1427,3.1406,3.1424,3.1403,3.1413,3.1393,3.1397,3.1361,3.1356,3.1356,3.1357,3.1354,3.1354,3.1345,3.1349,3.1362,3.1363,3.1363,3.1364,0,3.1444,3.1454,3.142,3.1422,3.1421,3.1396,3.1396,3.1376,3.138,3.1353,3.1347,3.1352,3.1329,3.1334,3.1308,3.1311,3.1266,3.1272,3.1269,3.1271,3.1239,3.1241,3.1136,3.1122,3.1218,3.1217,3.1216,0,3.1396,3.1374,3.1373,3.1362,3.1359,3.1341,3.133,3.1343,3.1331,3.132,3.1302,3.1281,3.1265,3.1227,3.1226,3.1206,3.1212,3.1176,3.1209,3.1206,3.121,3.1211,3.1209,3.1169,3.1168,3.1167,3.1167,0,3.1311,3.1317,3.1303,3.129,3.1278,3.1268,3.1259,3.1248,3.126,3.1245,3.1224,3.1212,3.1187,3.1165,3.1147,3.1142,3.1155,3.1157,3.1148,3.1144,3.1143,3.1143,3.1251,3.1159,3.116,3.116,3.1161,3.1161,3.1247,3.1229,3.1226,3.1209,3.1205,3.1196,3.1179,3.1181,3.1164,3.1147,3.1155,3.1129,3.1121,3.1099,3.1091,3.107,3.1083,3.1071,3.1068,3.1064,3.106,3.1148,3.1067,3.1067,3.1067,3.1067,3.1067,0,3.1162,3.1162,3.1147,3.1136,3.1122,3.114,3.1131,3.1118,3.1096,3.1089,3.1074,3.1048,3.1028,3.1026,3.1006,3.099,3.0995,3.0984,3.0985,3.0983,3.105,3.1059,3.098,3.098,3.098,3.098,3.098,3.098,3.1116,3.1086,3.1092,3.1059,3.1059,3.1037,3.103,3.1022,3.1016,3.0988,3.0972,3.0973,3.0967,3.0947,3.0928,3.0928,3.092,3.0905,3.0907,3.097,3.0978,3.0987,3.0995,3.0904,3.0904,3.0842,3.0842,3.0841]}]]